GW1187 Weather Reports


Display with metric or nautical units.
time (UTC)temp
F
wind
direction
speed
MPH
gust
MPH
rain 1hr
in
rain 24hr
in
rain mn
in
humidity
%
barometer
mb
20260509053051 34 0 0.0 0.0 0.00 0.00 0.00 88 1013.8
20260509051544 33 0 0.0 0.0 0.00 0.00 0.00 87 1013.5
20260509050052 34 0 0.0 0.0 0.00 0.00 0.00 87 1013.3
20260509044548 35 0 0.0 0.0 0.00 0.00 0.00 87 1013.4
20260509043041 35 0 0.0 0.0 0.00 0.00 0.00 86 1013.2
20260509041549 35 0 0.0 0.0 0.00 0.00 0.00 86 1013.1
20260509040049 36 0 0.0 0.0 0.00 0.00 0.00 84 1013.0
20260509034547 36 0 0.0 0.0 0.00 0.00 0.00 83 1013.0
20260509033048 37 0 0.0 0.0 0.00 0.00 0.00 82 1012.9
20260509031559 37 0 0.0 0.0 0.00 0.00 0.00 81 1012.9
20260509030040 38 0 0.0 0.0 0.00 0.00 0.00 79 1012.8
20260509024541 39 0 0.0 0.0 0.00 0.00 0.00 77 1012.7
20260509023040 40 0 0.0 0.0 0.00 0.00 0.00 74 1012.5
20260509021547 42 0 0.0 0.0 0.00 0.00 0.00 74 1012.5
20260509020048 42 0 0.0 0.0 0.00 0.00 0.00 71 1012.2
20260509014544 43 0 0.0 0.0 0.00 0.00 0.00 68 1012.0
20260509013044 44 0 0.0 0.0 0.00 0.00 0.00 68 1011.8
20260509011543 45 0 0.0 0.0 0.00 0.00 0.00 66 1011.6
20260509010049 45 0 0.0 0.0 0.00 0.00 0.00 66 1011.4
20260509004550 46 0 0.0 0.0 0.00 0.00 0.00 63 1011.1
20260509003049 46 0 0.0 1.0 0.00 0.00 0.00 61 1010.9
20260509001545 47 0 0.0 2.0 0.00 0.00 0.00 58 1010.7
20260509000049 48 119 0.0 3.0 0.00 0.00 0.00 56 1010.6
20260508234548 49 0 0.0 5.0 0.00 0.00 0.00 54 1010.3
20260508233053 49 142 2.0 6.0 0.00 0.00 0.00 52 1010.0
20260508231546 50 120 1.0 6.0 0.00 0.00 0.00 51 1009.7
20260508230114 50 109 1.0 5.0 0.00 0.00 0.00 49 1009.8
20260508224549 51 115 2.0 7.0 0.00 0.00 0.00 50 1009.7
20260508223041 51 133 3.0 6.0 0.00 0.00 0.00 49 1009.8
20260508221541 52 153 2.0 8.0 0.00 0.00 0.00 44 1009.6
20260508220109 53 171 2.0 10.0 0.00 0.00 0.00 40 1009.3
20260508214549 54 158 0.0 7.0 0.00 0.00 0.00 39 1009.0
20260508213046 55 129 2.0 9.0 0.00 0.00 0.00 36 1009.0
20260508211547 57 141 2.0 10.0 0.00 0.00 0.00 35 1008.6
20260508210045 57 30 3.0 10.0 0.00 0.00 0.00 33 1008.6
20260508204555 57 153 4.0 9.0 0.00 0.00 0.00 35 1008.5
20260508203048 55 330 3.0 7.0 0.00 0.00 0.00 38 1008.5
20260508201548 56 65 3.0 10.0 0.00 0.00 0.00 37 1008.5
20260508200046 56 18 2.0 12.0 0.00 0.00 0.00 36 1008.4
20260508194542 55 147 4.0 9.0 0.00 0.00 0.00 39 1008.4
20260508193047 54 92 1.0 6.0 0.00 0.00 0.00 39 1008.3
20260508191551 54 120 3.0 10.0 0.00 0.00 0.00 37 1008.5
20260508190103 53 35 2.0 8.0 0.00 0.00 0.00 39 1008.8
20260508184551 54 291 3.0 10.0 0.00 0.00 0.00 38 1008.9
20260508183047 53 143 0.0 8.0 0.00 0.00 0.00 40 1008.8
20260508181604 53 39 2.0 7.0 0.00 0.00 0.00 40 1009.0
20260508180048 53 61 3.0 15.0 0.00 0.00 0.00 39 1009.1
20260508174601 53 103 2.0 10.0 0.00 0.00 0.00 37 1008.8
20260508173046 53 135 1.0 9.0 0.00 0.00 0.00 35 1008.8
20260508171545 53 184 4.0 11.0 0.00 0.00 0.00 36 1008.9
20260508170042 53 123 3.0 11.0 0.00 0.00 0.00 35 1008.8
20260508164541 53 163 1.0 14.0 0.00 0.00 0.00 36 1008.8
20260508163048 52 126 0.0 6.0 0.00 0.00 0.00 38 1008.9
20260508161546 53 146 2.0 8.0 0.00 0.00 0.00 37 1008.9
20260508160047 53 52 1.0 6.0 0.00 0.00 0.00 41 1008.7
20260508154546 53 29 1.0 6.0 0.00 0.00 0.00 39 1008.7
20260508153044 53 72 4.0 12.0 0.00 0.00 0.00 39 1008.7
20260508151540 52 142 2.0 5.0 0.00 0.00 0.00 43 1008.8
20260508150046 52 209 3.0 7.0 0.00 0.00 0.00 41 1009.0
20260508144548 51 151 3.0 13.0 0.00 0.00 0.00 44 1009.0
20260508143051 50 94 1.0 8.0 0.00 0.00 0.00 46 1009.0
20260508141554 49 139 1.0 8.0 0.00 0.00 0.00 47 1009.3
20260508140041 48 143 2.0 7.0 0.00 0.00 0.00 51 1009.5
20260508134558 46 120 2.0 7.0 0.00 0.00 0.00 52 1009.8
20260508133045 46 297 2.0 9.0 0.00 0.00 0.00 51 1009.8
20260508131546 47 139 3.0 7.0 0.00 0.00 0.00 52 1009.8
20260508130043 47 160 1.0 9.0 0.00 0.00 0.00 52 1009.8
20260508124542 46 193 0.0 8.0 0.00 0.00 0.00 51 1009.8
20260508123058 47 130 1.0 7.0 0.00 0.00 0.00 52 1009.7
20260508121546 46 123 1.0 8.0 0.00 0.00 0.00 53 1009.7
20260508120047 46 155 2.0 7.0 0.00 0.00 0.00 52 1009.6
20260508114549 44 328 1.0 3.0 0.00 0.00 0.00 64 1009.6
20260508113045 40 0 0.0 0.0 0.00 0.00 0.00 74 1009.6
20260508111548 37 0 0.0 0.0 0.00 0.00 0.00 83 1009.4
20260508110048 34 0 0.0 0.0 0.00 0.00 0.00 88 1009.3
20260508104546 33 0 0.0 0.0 0.00 0.00 0.00 90 1009.3
20260508103042 31 0 0.0 0.0 0.00 0.00 0.00 91 1009.2
20260508101541 31 0 0.0 0.0 0.00 0.00 0.00 91 1009.1
20260508100048 30 0 0.0 0.0 0.00 0.00 0.00 91 1008.8
20260508094608 30 0 0.0 0.0 0.00 0.00 0.00 91 1008.8
20260508093046 30 0 0.0 0.0 0.00 0.00 0.00 91 1008.7
20260508091545 30 0 0.0 0.0 0.00 0.00 0.00 91 1008.6
20260508090049 30 0 0.0 0.0 0.00 0.00 0.00 91 1008.5
20260508084542 30 0 0.0 0.0 0.00 0.00 0.00 91 1008.5
20260508083048 30 0 0.0 0.0 0.00 0.00 0.00 91 1008.5
20260508081609 30 0 0.0 0.0 0.00 0.00 0.00 91 1008.5
20260508080041 30 0 0.0 0.0 0.00 0.00 0.00 91 1008.4
20260508074541 30 0 0.0 0.0 0.00 0.01 0.00 90 1008.2
20260508073047 31 0 0.0 0.0 0.00 0.01 0.00 90 1007.9
20260508071549 31 0 0.0 0.0 0.00 0.01 0.00 89 1007.7
20260508070045 32 0 0.0 0.0 0.00 0.01 0.00 89 1007.8
20260508064542 32 0 0.0 0.0 0.00 0.01 0.00 89 1007.8
20260508063055 32 0 0.0 0.0 0.00 0.01 0.00 89 1007.9
20260508061552 33 0 0.0 0.0 0.00 0.01 0.00 89 1007.9
20260508060053 33 0 0.0 0.0 0.00 0.01 0.00 88 1007.9
20260508054543 33 0 0.0 0.0 0.00 0.01 0.00 87 1008.1